User: anonymous   Login
Location: Long Geng
(2.6167°N, 114.1333°E)
Time: 05:41:40
(UTC+00:00)
Language:

ARIANE 5 R/B - Orbit

View from above orbital plane
View from above orbital plane
View from above satellite
View from above satellite

Ground track
Ground track

The orbit data is extracted from the following two-line orbital elements,

1 39080U 13006C   21210.02791468  .00001605  00000-0  50432-3 0  9992
2 39080   6.6316  50.2819 7219809 252.2406  22.7742  2.35702290 71996
Epoch (UTC): 29 July 2021 00:40:11
Eccentricity: 0.7219809
inclination: 6.6316°
perigee height: 252 km
apogee height: 34691 km
right ascension of ascending node: 50.2819°
argument of perigee: 252.2406°
revolutions per day: 2.35702290
mean anomaly at epoch: 22.7742°
orbit number at epoch: 7199

The dashed part of the orbit path shows where the satellite is in the earth's shadow,  

DLR